Weather History for Sandspit, BC

Change the Weather History Date:

Wednesday, January 2, 2013

  Actual Average Record
Temperature  
Mean Temperature 42 °F -  
Max Temperature 46 °F 44 °F 53 °F (2001)
Min Temperature 39 °F 36 °F 21 °F (2009)
Degree Days  
Heating Degree Days 22    
Moisture  
Dew Point 42 °F    
Average Humidity 93    
Maximum Humidity 100    
Minimum Humidity 87    
Precipitation  
Precipitation 0.00 in 0.45 in - ()
Sea Level Pressure  
Sea Level Pressure 29.88 in    
Wind  
Wind Speed 20 mph ()    
Max Wind Speed 29 mph    
Max Gust Speed 37 mph    
Visibility 6.5 miles    
Events Rain    
Averages and records for this station are not official NWS values.
T = Trace of Precipitation, MM = Missing Value Source: Averaged Metar Reports

Daily Weather History Graph

Daily Weather History Graph

Search for Another Location

Airport:

Trip Planner

Search our weather history database for the weather conditions in past years. The results will help you decide how hot, cold, wet, or windy it might be!

Date:

Astronomy

Jan. 02, 2013 Rise Set
Actual Time 9:01 AM PST 4:41 PM PST
Civil Twilight 8:19 AM PST 5:23 PM PST
Nautical Twilight 7:34 AM PST 6:08 PM PST
Astronomical Twilight 6:52 AM PST 6:50 PM PST
Moon 11:14 PM PST (1/2) 10:58 AM PST (1/2)
Length of Visible Light 9h 04m
Length of Day
7h 39m
Waning Gibbous, 74% of the Moon is Illuminated
Jan 2
Waning Gibbous
Jan 4
Last Quarter
Jan 11
New
Jan 18
First Quarter
Jan 26
Full

Hourly Weather History & Observations

Time (PST) Temp. Windchill Dew Point Humidity Pressure Visibility Wind Dir Wind Speed Gust Speed Precip Events Conditions
12:00 AM 44.6 °F 35.7 °F 42.8 °F 93% 29.94 in 8.0 mi SE 24.2 mph 32.2 mph N/A Rain Light Rain
12:02 AM 44.6 °F 35.7 °F 42.8 °F 93% 29.94 in 7.0 mi SSE 24.2 mph 32.2 mph N/A   Overcast
12:05 AM 44.6 °F 35.7 °F 42.8 °F 93% 29.94 in 8.0 mi SSE 24.2 mph 32.2 mph N/A Rain Light Rain
12:39 AM 44.6 °F 35.3 °F 42.8 °F 93% 29.91 in 5.0 mi SE 26.5 mph - N/A Rain Light Rain
1:00 AM 44.6 °F 35.9 °F 42.8 °F 93% 29.92 in 5.0 mi SSE 23.0 mph 32.2 mph N/A Rain Light Rain
1:08 AM 44.6 °F 35.3 °F 42.8 °F 93% 29.91 in 6.0 mi SSE 26.5 mph 32.2 mph N/A Rain Light Rain
1:13 AM 44.6 °F 35.1 °F 42.8 °F 93% 29.92 in 6.0 mi SSE 27.6 mph - N/A   Overcast
1:22 AM 44.6 °F 35.3 °F 42.8 °F 93% 29.91 in 6.0 mi SE 26.5 mph - N/A Rain Light Rain
1:29 AM 44.6 °F 35.1 °F 42.8 °F 93% 29.91 in 5.0 mi SE 27.6 mph 33.4 mph N/A Rain Light Rain
2:00 AM 44.6 °F 35.5 °F 42.8 °F 93% 29.90 in 4.0 mi SE 25.3 mph 33.4 mph N/A Rain Light Rain
2:05 AM 44.6 °F 34.9 °F 42.8 °F 93% 29.90 in 6.0 mi SE 28.8 mph - N/A Rain Light Rain
2:21 AM 44.6 °F 35.9 °F 42.8 °F 93% 29.90 in 6.0 mi SE 23.0 mph 29.9 mph N/A   Overcast
3:00 AM 44.6 °F 35.9 °F 42.8 °F 93% 29.90 in 9.0 mi SE 23.0 mph - N/A   Overcast
3:29 AM 44.6 °F 35.1 °F 42.8 °F 93% 29.89 in 6.0 mi SE 27.6 mph 33.4 mph N/A Rain Light Rain
3:32 AM 44.6 °F 34.9 °F 42.8 °F 93% 29.89 in 6.0 mi SE 28.8 mph - N/A Rain Light Rain
3:38 AM 44.6 °F 35.1 °F 42.8 °F 93% 29.89 in 6.0 mi SE 27.6 mph - N/A Rain Light Rain
3:44 AM 44.6 °F 35.1 °F 42.8 °F 93% 29.89 in 6.0 mi SE 27.6 mph - N/A Rain Light Rain
3:46 AM 44.6 °F 35.7 °F 42.8 °F 93% 29.89 in 5.0 mi SE 24.2 mph 32.2 mph N/A Rain Light Rain
3:49 AM 44.6 °F 35.5 °F 42.8 °F 93% 29.89 in 5.0 mi SE 25.3 mph 32.2 mph N/A Rain Light Rain
4:00 AM 45 °F - - % 29.88 in - SE 23.0 mph - -  
4:00 AM 44.6 °F 34.9 °F 42.8 °F 93% 29.88 in 4.0 mi SE 28.8 mph - N/A Rain Light Rain
4:22 AM 44.6 °F 36.1 °F 42.8 °F 93% 29.89 in 7.0 mi SSE 21.9 mph 31.1 mph N/A Rain Light Rain
5:00 AM 44.6 °F 35.3 °F 42.8 °F 93% 29.88 in 9.0 mi SE 26.5 mph - N/A Rain Light Rain
5:07 AM 44.6 °F 35.7 °F 42.8 °F 93% 29.88 in 9.0 mi SE 24.2 mph 31.1 mph N/A Rain Light Rain
5:12 AM 44.6 °F 35.5 °F 42.8 °F 93% 29.88 in 9.0 mi SE 25.3 mph - N/A Rain Light Rain
5:53 AM 44.6 °F 35.9 °F 42.8 °F 93% 29.86 in 6.0 mi SE 23.0 mph 29.9 mph N/A Rain Light Rain
6:00 AM 44.6 °F 35.9 °F 42.8 °F 93% 29.86 in 6.0 mi SSE 23.0 mph 28.8 mph N/A Rain Light Rain
6:02 AM 44.6 °F 35.5 °F 42.8 °F 93% 29.86 in 7.0 mi SSE 25.3 mph 32.2 mph N/A   Overcast
6:03 AM 44.6 °F 35.3 °F 42.8 °F 93% 29.86 in 7.0 mi SSE 26.5 mph - N/A Rain Light Rain
6:09 AM 44.6 °F 35.5 °F 42.8 °F 93% 29.86 in 8.0 mi SSE 25.3 mph 32.2 mph N/A   Overcast
6:10 AM 44.6 °F 35.3 °F 42.8 °F 93% 29.86 in 9.0 mi SSE 26.5 mph - N/A Rain Light Rain
6:37 AM 44.6 °F 35.1 °F 42.8 °F 93% 29.84 in 5.0 mi SE 27.6 mph - N/A Rain Light Rain
7:00 AM 44.6 °F 35.1 °F 42.8 °F 93% 29.83 in 5.0 mi SE 27.6 mph 36.8 mph N/A Rain Light Rain
7:03 AM 44.6 °F 35.7 °F 42.8 °F 93% 29.83 in 5.0 mi SE 24.2 mph 36.8 mph N/A Rain Light Rain
7:19 AM 44.6 °F 35.5 °F 42.8 °F 93% 29.83 in 6.0 mi SSE 25.3 mph - N/A Rain Light Rain
7:22 AM 44.6 °F 35.5 °F 42.8 °F 93% 29.83 in 6.0 mi SE 25.3 mph - N/A Rain Light Rain
7:39 AM 44.6 °F 35.3 °F 42.8 °F 93% 29.83 in 5.0 mi SE 26.5 mph - N/A Rain Light Rain
7:44 AM 44.6 °F 35.7 °F 42.8 °F 93% 29.83 in 5.0 mi SE 24.2 mph 33.4 mph N/A Rain Light Rain
8:00 AM 44.6 °F 35.3 °F 42.8 °F 93% 29.83 in 5.0 mi SSE 26.5 mph - N/A Rain Light Rain
8:17 AM 44.6 °F 35.9 °F 42.8 °F 93% 29.81 in 5.0 mi SE 23.0 mph - N/A Rain Light Rain
9:00 AM 44.6 °F 36.1 °F 44.6 °F 100% 29.83 in 5.0 mi SSE 21.9 mph 28.8 mph N/A Rain Light Rain
9:34 AM 44.6 °F 38.4 °F 42.8 °F 93% 29.84 in 3.0 mi SSE 12.7 mph - N/A   Overcast
9:37 AM 44.6 °F 38.4 °F 42.8 °F 93% 29.84 in 3.0 mi SSE 12.7 mph - N/A Rain Light Rain
9:59 AM 46.4 °F 40.1 °F 44.6 °F 93% 29.83 in 6.0 mi SE 15.0 mph - N/A Rain Light Rain
10:00 AM 46 °F - - % 29.83 in - SE 11.5 mph - -  
10:00 AM 46.4 °F 40.1 °F 44.6 °F 93% 29.83 in 6.0 mi SE 15.0 mph - N/A Rain Light Rain
10:25 AM 46.4 °F 38.5 °F 44.6 °F 93% 29.83 in 6.0 mi SE 21.9 mph - N/A   Overcast
10:30 AM 46.4 °F 38.7 °F 44.6 °F 93% 29.83 in - SE 20.7 mph 27.6 mph N/A Rain Light Rain
10:36 AM 46.4 °F 38.7 °F 44.6 °F 93% 29.83 in 6.0 mi SE 20.7 mph 27.6 mph N/A Rain Light Rain
10:58 AM 46.4 °F 39.2 °F 44.6 °F 93% 29.84 in 5.0 mi SSE 18.4 mph 27.6 mph N/A Rain Light Rain
11:00 AM 46.4 °F 38.7 °F 44.6 °F 93% 29.84 in 5.0 mi SSE 20.7 mph 27.6 mph N/A Rain Light Rain
11:24 AM 46.4 °F 39.0 °F 44.6 °F 93% 29.83 in 6.0 mi SE 19.6 mph 27.6 mph N/A Rain Light Rain
11:39 AM 46.4 °F 38.7 °F 44.6 °F 93% 29.83 in 5.0 mi SSE 20.7 mph - N/A Rain Light Rain
11:55 AM 46.4 °F 39.0 °F 44.6 °F 93% 29.83 in 6.0 mi SE 19.6 mph - N/A Rain Light Rain
12:00 PM 46.4 °F 39.2 °F 44.6 °F 93% 29.82 in 6.0 mi SSE 18.4 mph - N/A   Overcast
12:03 PM 46.4 °F 39.2 °F 44.6 °F 93% 29.82 in - SSE 18.4 mph - N/A Rain Light Rain
12:35 PM 46.4 °F 39.5 °F 44.6 °F 93% 29.81 in 6.0 mi SE 17.3 mph - N/A   Overcast
12:36 PM 46.4 °F 39.5 °F 44.6 °F 93% 29.81 in 6.0 mi SE 17.3 mph - N/A Rain Light Rain
1:00 PM 46.4 °F 39.2 °F 44.6 °F 93% 29.81 in 8.0 mi SE 18.4 mph - N/A Rain Light Rain
1:52 PM 46.4 °F 39.2 °F 44.6 °F 93% 29.80 in 5.0 mi SE 18.4 mph - N/A Rain Light Rain
2:00 PM 46.4 °F 39.5 °F 44.6 °F 93% 29.80 in 4.0 mi SE 17.3 mph - N/A Rain Light Rain
3:00 PM 46.4 °F 41.5 °F 44.6 °F 93% 29.81 in 5.0 mi SSE 10.4 mph - N/A Rain Light Rain
4:00 PM 46 °F - - % 29.82 in - SSE 5.8 mph - -  
4:00 PM 46.4 °F 42.9 °F 44.6 °F 93% 29.82 in 4.0 mi SSE 6.9 mph - N/A Rain Light Rain
5:00 PM 46.4 °F - 44.6 °F 93% 29.85 in 5.0 mi Variable 2.3 mph - N/A Rain Light Rain
5:03 PM 46.4 °F - 44.6 °F 93% 29.85 in 6.0 mi Variable 2.3 mph - N/A Rain Light Rain
5:12 PM 44.6 °F 39.7 °F 44.6 °F 100% 29.86 in 6.0 mi WNW 9.2 mph - N/A Rain Light Rain
5:14 PM 44.6 °F 38.8 °F 42.8 °F 93% 29.86 in 5.0 mi NW 11.5 mph - N/A Rain Light Rain
5:21 PM 44.6 °F 37.8 °F 42.8 °F 93% 29.86 in 5.0 mi NNW 15.0 mph 21.9 mph N/A Rain Light Rain
6:03 PM 41.0 °F 31.9 °F 39.2 °F 93% 29.90 in - NNW 19.6 mph 26.5 mph N/A Rain Light Rain
6:04 PM 41.0 °F 31.6 °F 39.2 °F 93% 29.90 in - NNW 20.7 mph - N/A Rain Light Rain
6:31 PM 39.2 °F 30.5 °F 37.4 °F 93% 29.91 in 6.0 mi NNW 16.1 mph 23.0 mph N/A Rain Light Rain
7:00 PM 39.2 °F 30.2 °F 37.4 °F 93% 29.92 in 9.0 mi NNW 17.3 mph - N/A Rain Light Rain
7:28 PM 39.2 °F 31.6 °F 37.4 °F 93% 29.93 in 9.0 mi NNW 12.7 mph - N/A Rain Light Rain
7:47 PM 39.2 °F 32.0 °F 37.4 °F 93% 29.94 in 9.0 mi NW 11.5 mph - N/A   Overcast
7:53 PM 39.2 °F 32.0 °F 37.4 °F 93% 29.94 in 9.0 mi NW 11.5 mph - N/A Rain Light Rain
8:00 PM 41.0 °F 34.7 °F 37.4 °F 87% 29.95 in 9.0 mi NNW 10.4 mph - N/A Rain Light Rain
8:32 PM 41.0 °F 34.3 °F 37.4 °F 87% 29.96 in 9.0 mi NNW 11.5 mph - N/A   Overcast
8:54 PM 41.0 °F 34.3 °F 37.4 °F 87% 29.96 in 9.0 mi NNW 11.5 mph - N/A   Overcast
9:00 PM 41.0 °F 34.3 °F 37.4 °F 87% 29.96 in 9.0 mi NNW 11.5 mph - N/A   Overcast
9:04 PM 41.0 °F 34.7 °F 37.4 °F 87% 29.96 in 9.0 mi NNW 10.4 mph - N/A   Overcast
9:50 PM 41.0 °F 35.8 °F 37.4 °F 87% 29.97 in 9.0 mi NW 8.1 mph - N/A   Overcast
10:00 PM 40 °F - - % 29.97 in - NW 6.9 mph - -  
10:00 PM 41.0 °F 36.4 °F 37.4 °F 87% 29.97 in 9.0 mi NW 6.9 mph - N/A   Overcast
10:04 PM 41.0 °F 35.8 °F 37.4 °F 87% 29.98 in 9.0 mi NW 8.1 mph - N/A   Overcast
10:05 PM 41.0 °F 36.4 °F 37.4 °F 87% 29.98 in 9.0 mi NW 6.9 mph - N/A   Overcast
10:57 PM 39.2 °F 34.2 °F 37.4 °F 93% 29.98 in 9.0 mi NW 6.9 mph - N/A   Overcast
11:00 PM 39.2 °F 34.2 °F 37.4 °F 93% 29.98 in 9.0 mi NW 6.9 mph - N/A   Overcast